Flag for Seychelles Weather past 2 weeks in Victoria, Seychelles

Now
79 °F

Passing clouds.


Feels Like: 82 °F
Forecast: 77 / 85 °F
Wind: No wind

Location: National Airport

Current Time: Mar 27, 2015 at 3:30:31 AM

Latest Report: Mar 27, 2015 at 3:00 AM


Visibility: N/A

Pressure: 29.86 "Hg

Humidity: 84%

Dew point: 73 °F

Location of VictoriaLocation

Historic Weather in Victoria — Graph

°F

Victoria temperature yesterday

Maximum temperature yesterday: 90 °F (at 1:00 PM)
Minimum temperature yesterday: 77 °F (at 3:00 AM)
Average temperature yesterday: 83 °F

Past Weeks' High & Low Weather Summary

 TemperatureHumidityPressure
High90 °F (Mar 14, 1:00 PM)100% (Mar 25, 6:00 PM)29.95 "Hg (Mar 25, 6:00 PM)
Low77 °F (Mar 18, 9:00 PM)59% (Mar 24, 3:00 PM)29.77 "Hg (Mar 19, 2:00 PM)
Average84 °F77%29.87 "Hg
* Reported Mar 12 2:00 AM — Mar 27 2:00 AM, Victoria, Weather by CustomWeather, © 2015

Note: Actual official high and low records may vary slightly from our data, if they occured in-between our weather recording intervals... More about our weather records

Advertising

Victoria weather history for previous 24 hours

 ConditionsComfort  
Time TempWeatherWind HumidityBarometerVisibility
2:00 AM
Fri, Mar 27
79 °FPassing clouds.No wind84%29.86 "HgN/A
1:00 AM79 °FPassing clouds.No wind89%29.89 "HgN/A
12:00 AM81 °FPassing clouds.No wind84%29.92 "HgN/A
11:00 PM
Thu, Mar 26
81 °FPassing clouds.No wind84%29.92 "HgN/A
10:00 PM82 °FPassing clouds.No wind79%29.92 "HgN/A
9:00 PM82 °FPassing clouds.No wind74%29.92 "HgN/A
8:00 PM82 °FPassing clouds.No wind74%29.89 "HgN/A
7:00 PM82 °FPassing clouds.No wind74%29.86 "HgN/A
6:00 PM86 °FPassing clouds.No wind66%29.86 "HgN/A
5:00 PM90 °FScattered clouds.9 mph59%29.83 "HgN/A
4:00 PM88 °FScattered clouds.No wind66%29.83 "HgN/A
3:00 PM88 °FScattered clouds.5 mph66%29.83 "HgN/A
2:00 PM88 °FScattered clouds.6 mph66%29.86 "HgN/A
1:00 PM90 °FHot.N/A67%29.86 "HgN/A
12:00 PM86 °FScattered clouds.7 mph70%29.89 "HgN/A
11:00 AM88 °FScattered clouds.10 mph70%29.92 "HgN/A
10:00 AM88 °FPassing clouds.7 mph66%29.92 "HgN/A
9:00 AM86 °FPassing clouds.6 mph70%29.92 "HgN/A
8:00 AM82 °FPassing clouds.No wind79%29.92 "HgN/A
7:00 AM79 °FPassing clouds.2 mph89%29.89 "HgN/A
6:00 AM77 °FPassing clouds.2 mph89%29.86 "HgN/A
5:00 AM77 °FPassing clouds.2 mph83%29.86 "HgN/A
4:00 AM79 °FPassing clouds.2 mph89%29.83 "HgN/A
3:00 AM77 °FPassing clouds.2 mph94%29.83 "HgN/A
Weather by CustomWeather, © 2015

See weather overviewHow to use our weather pages